Theta_e
318 320 320 320 319 320 320 321 322 323 324 324 322 322 324 322 322 322 323 322 321 321 320 319 319 319 318 318 320 315 315 313 304 303 304 304 303 304 305 307 307 307 313
320 320 318 318 318 318 318 320 322 321 322 322 322 323 325 322 321 320 319 319 318 318 318 318 318 317 318 319 317 315 313 310 307 302 302 301 301 303 303 302 303 305 306
317 319 318 317 315 316 317 318 318 317 318 318 319 321 322 322 321 321 320 320 320 320 319 318 317 317 316 314 315 313 310 309 307 304 299 300 300 302 300 297 296 297 299
317 316 315 315 314 315 316 315 316 315 315 315 316 316 319 320 321 320 319 316 315 315 315 315 315 315 313 313 310 308 307 304 303 301 299 298 298 299 298 297 294 295 294
315 314 313 312 312 313 313 314 313 314 316 316 316 315 317 319 318 315 314 314 312 312 312 313 314 315 314 312 308 306 305 302 301 299 297 296 294 294 295 297 295 295 294
314 312 311 311 312 312 312 312 314 315 316 316 316 316 317 316 316 315 313 310 309 307 305 305 309 312 313 313 311 309 306 300 295 293 294 293 291 293 294 294 296 296 294
313 311 311 311 311 311 312 313 312 312 313 313 314 314 314 314 316 313 310 306 304 303 301 298 296 297 298 298 302 302 301 300 297 294 291 290 291 291 293 292 291 291 289
311 310 310 311 311 311 311 311 311 311 311 311 311 312 311 312 312 309 306 301 299 298 297 295 294 296 296 296 296 295 295 295 295 294 293 292 291 292 293 292 292 291 291
310 309 310 310 310 310 309 309 310 309 309 308 308 308 307 307 308 306 303 299 297 298 298 299 300 299 301 300 296 294 294 294 298 298 297 297 297 295 293 292 289 289 288
310 310 311 310 310 308 308 308 307 306 304 305 304 304 306 304 306 304 300 298 298 299 300 300 302 301 301 298 293 291 289 289 290 290 290 290 292 292 293 292 291 288 288
310 310 310 309 308 308 307 306 304 303 302 301 301 301 302 303 303 302 301 299 298 298 298 299 300 300 298 296 294 292 290 291 290 289 289 289 289 289 289 289 290 288 286
309 309 308 308 307 307 305 304 303 301 300 299 299 299 301 302 303 302 301 300 300 297 297 298 299 299 298 297 296 295 293 291 290 288 287 286 286 286 286 288 287 287 288
308 307 307 307 307 306 304 302 302 301 300 299 299 299 300 302 303 303 303 302 301 299 300 300 300 299 298 297 295 293 291 289 288 287 285 285 285 286 287 287 287 287 286
306 306 306 305 305 305 305 304 302 301 300 299 298 298 299 301 301 302 301 302 302 300 299 296 296 295 293 292 290 289 289 289 287 286 285 286 286 286 285 286 284 284 284
306 305 304 305 303 303 304 304 303 302 301 299 299 299 298 297 298 300 298 296 296 295 292 290 289 288 287 287 287 287 288 287 286 286 285 285 285 285 284 285 284 284 282
304 304 303 303 302 301 300 300 304 303 302 301 300 299 299 301 301 300 299 297 296 293 290 288 287 287 286 287 286 286 287 286 286 285 285 285 284 283 283 284 284 283 281
304 303 303 302 301 300 299 298 296 299 301 301 301 301 302 302 301 300 298 297 294 291 288 287 287 287 287 286 286 286 285 285 286 285 285 285 284 283 283 283 283 283 282
304 304 302 302 301 300 299 299 299 298 296 297 301 301 302 301 300 298 297 293 289 289 288 287 287 287 287 286 286 286 285 285 285 285 285 285 284 283 283 282 283 283 282
304 303 303 302 301 300 299 299 299 298 296 296 298 300 301 300 298 297 293 290 288 287 288 288 288 287 287 287 287 287 286 285 285 285 285 285 284 284 283 283 283 282 282
304 303 303 301 299 299 298 298 297 296 296 296 296 296 298 297 294 292 290 289 289 288 288 288 288 288 288 288 287 287 287 285 285 285 285 285 284 284 283 283 282 282 282
303 302 302 301 299 298 298 297 297 297 296 295 295 297 298 296 293 291 290 289 289 288 288 288 288 288 288 288 288 287 286 285 285 285 285 285 285 284 284 283 283 283 283
301 301 300 299 299 298 297 297 296 296 295 294 294 297 297 295 293 292 291 290 290 290 290 289 289 289 289 288 288 287 286 285 286 285 285 285 285 284 284 283 283 282 282
301 299 298 298 298 298 296 296 295 295 294 294 296 296 293 294 293 292 292 291 291 290 289 289 289 288 289 289 289 289 287 286 286 286 285 285 284 284 284 283 282 282 282
301 299 297 297 297 296 295 295 295 294 294 294 296 294 293 293 293 292 292 292 291 290 290 289 289 288 288 288 289 289 288 288 287 287 286 285 285 284 284 283 283 282 282
301 299 297 297 296 295 294 294 294 293 293 294 294 293 293 293 292 292 292 292 291 290 289 289 289 289 288 288 288 288 287 286 287 286 287 286 285 284 284 284 283 283 282
301 300 298 297 296 295 295 294 293 293 293 293 294 293 293 292 292 292 292 292 290 290 289 289 289 288 289 289 288 287 288 287 287 286 287 286 285 285 285 284 283 283 282
Wind_Speed
7 8 9 9 9 4 8 8 8 8 9 9 8 7 8 8 7 6 6 5 6 5 4 4 3 3 2 2 2 1 2 2 3 2 2 4 5 6 7 7 8 7 5
5 8 8 9 9 9 8 7 10 9 6 5 7 8 8 8 8 7 7 5 5 5 5 3 2 2 2 2 2 2 2 2 2 5 2 4 5 5 6 7 6 7 7
2 5 8 9 12 5 9 9 9 9 8 7 7 6 6 6 6 6 8 7 6 5 4 3 4 3 2 1 1 3 3 3 3 4 3 2 4 3 5 7 6 6 6
6 5 7 8 12 10 9 8 10 9 7 6 6 5 6 5 4 6 7 8 8 7 6 5 5 4 3 4 5 6 5 5 6 6 5 4 4 4 4 3 5 6 6
6 7 7 9 10 8 10 8 7 7 7 7 7 6 5 5 4 8 9 9 10 8 7 7 7 8 10 9 5 6 7 7 6 6 5 5 3 4 5 3 3 4 7
10 9 7 8 10 9 7 8 9 8 7 7 7 7 7 4 15 16 12 10 10 11 11 12 12 17 20 24 22 20 11 7 8 4 7 8 7 4 4 3 2 1 2
11 10 9 9 8 8 9 9 8 7 6 6 7 7 7 9 20 20 21 11 11 10 11 10 10 10 16 16 25 28 28 26 19 11 11 8 7 5 4 5 6 5 5
11 11 10 10 9 8 8 7 7 7 8 9 10 10 10 11 23 24 23 13 12 12 12 12 12 13 14 17 19 19 18 17 15 12 13 11 9 7 7 5 5 4 4
10 11 10 10 9 9 8 8 8 9 9 10 11 12 13 11 25 24 19 13 13 15 13 14 14 14 18 20 17 18 17 15 18 22 21 19 18 17 10 4 5 3 3
11 12 11 10 11 9 9 9 8 10 10 11 12 11 16 14 21 22 16 11 15 12 13 15 18 16 20 18 15 14 14 11 11 11 11 13 14 14 17 11 6 6 4
12 12 12 11 11 10 10 10 11 12 13 12 12 9 12 14 16 21 18 12 11 11 11 11 11 21 21 20 17 12 12 11 13 10 9 8 9 9 8 9 9 7 5
13 13 12 12 9 9 13 10 12 14 14 12 13 10 9 13 18 20 20 19 18 13 12 10 13 21 21 20 15 19 17 12 8 8 8 8 8 7 7 6 8 7 6
15 13 12 12 11 12 13 12 11 12 11 11 10 10 10 10 11 23 23 23 22 14 10 17 23 22 22 17 18 16 12 8 7 8 7 7 6 6 6 7 7 8 8
15 14 13 12 11 11 9 10 10 10 10 10 10 10 10 9 10 10 11 13 21 15 19 13 15 16 16 13 11 10 8 7 7 7 7 5 5 6 7 6 7 6 6
15 13 12 11 11 10 8 8 8 7 9 12 10 10 11 10 9 12 12 10 10 13 13 9 8 8 8 8 8 8 6 6 6 6 6 6 6 6 7 6 6 6 7
15 11 11 10 10 10 10 10 14 15 17 16 18 13 9 17 21 21 21 21 21 17 9 9 8 7 7 7 7 7 6 7 5 5 5 6 6 7 6 6 6 7 7
14 13 11 12 10 11 10 11 11 13 18 18 20 22 20 21 22 22 22 20 18 12 9 8 8 7 7 7 6 6 6 5 5 5 5 5 6 6 7 6 7 6 7
15 19 11 10 10 10 10 10 10 11 11 10 15 17 21 23 23 22 21 16 9 7 7 8 8 7 7 7 6 6 5 5 4 5 5 5 5 6 6 6 7 7 7
13 10 10 10 10 12 10 10 10 11 12 11 11 13 17 22 21 19 11 7 8 8 7 7 7 7 6 6 6 5 5 4 4 4 4 5 5 5 6 6 6 9 8
11 19 14 10 11 11 10 11 11 12 12 11 10 11 10 13 9 6 5 7 7 7 7 7 6 6 7 6 6 5 5 5 4 4 4 4 4 5 5 6 6 6 7
9 10 17 10 10 9 10 11 10 11 10 10 9 10 16 9 9 7 7 6 7 7 7 7 7 6 6 6 6 5 5 4 4 4 4 4 4 5 5 5 5 6 6
8 9 9 10 9 9 9 9 10 10 10 10 9 9 15 7 8 7 6 6 6 6 6 7 6 6 6 6 6 6 5 5 4 4 4 4 4 4 4 5 5 6 6
8 9 9 9 9 14 9 9 9 9 10 10 10 9 7 7 7 7 7 6 6 6 6 6 6 6 5 5 5 5 5 5 4 4 4 4 3 4 4 5 5 5 6
7 9 10 9 9 8 8 9 8 11 11 10 10 8 8 7 7 8 7 7 6 6 6 6 6 8 7 6 5 5 4 5 4 4 5 4 4 4 4 5 5 6 5
6 7 8 9 9 9 9 9 9 9 9 9 9 8 8 8 7 7 7 7 7 7 7 7 6 9 10 10 8 8 9 10 6 6 4 4 4 4 4 4 4 4 6
6 6 7 8 8 8 9 9 9 9 9 9 8 8 9 8 7 7 7 8 7 7 8 6 8 10 11 9 9 11 13 11 9 8 5 4 3 3 3 4 5 4 6
Wind_Direction
86 95 119 121 101 114 120 149 169 142 147 152 145 150 155 148 145 129 138 142 133 128 123 124 145 133 143 158 128 136 147 112 112 93 74 28 30 47 46 50 42 39 44
113 135 130 116 108 140 124 160 148 132 130 140 147 163 153 140 144 143 141 139 139 147 134 154 166 141 145 160 132 144 139 105 116 121 91 54 58 37 55 49 37 37 31
253 153 137 131 111 139 130 141 122 121 119 106 102 109 113 128 148 147 150 158 159 150 155 168 139 133 120 130 119 126 104 86 79 117 110 73 51 37 66 49 35 31 38
197 160 144 136 118 143 133 115 124 117 118 113 118 114 106 116 124 118 113 102 93 82 83 84 85 91 109 107 99 98 98 89 82 87 81 86 66 45 65 64 63 51 43
186 147 139 122 116 117 121 123 120 116 126 138 133 127 117 117 114 111 110 107 99 87 73 80 82 93 97 97 89 78 90 89 87 87 77 83 56 48 38 28 76 78 60
174 140 125 115 120 123 123 123 121 118 131 136 140 131 138 123 129 124 114 102 97 93 86 70 66 73 81 83 82 77 76 87 76 83 83 80 63 50 42 34 46 10 73
157 145 135 125 127 132 128 129 116 121 121 117 113 111 116 121 126 119 109 100 100 97 93 89 79 71 76 81 79 78 74 74 76 87 87 69 63 30 44 62 61 65 64
144 143 139 138 137 133 121 116 115 112 113 106 96 100 97 115 118 112 105 99 93 88 89 90 92 95 96 97 91 87 81 77 74 78 79 77 69 59 62 56 65 90 104
158 147 147 142 137 124 122 119 114 110 102 94 95 99 105 108 115 113 106 100 94 94 94 94 98 102 104 103 97 94 87 80 73 76 74 70 70 62 54 79 56 60 65
165 153 142 140 129 123 121 116 109 105 101 96 93 97 110 110 109 108 106 108 106 101 97 96 99 104 103 99 99 102 96 93 95 86 74 65 62 55 51 46 33 38 25
153 137 134 129 122 125 119 118 115 108 100 96 97 95 103 110 112 110 110 111 110 108 105 102 101 103 101 96 95 97 103 107 93 86 79 68 59 53 49 46 43 37 33
142 129 131 125 127 127 122 119 116 114 107 111 107 103 100 107 111 109 110 109 112 109 109 107 107 107 105 102 99 104 104 97 91 82 73 62 57 52 50 54 53 53 50
133 131 131 126 130 131 127 125 121 116 119 122 114 114 112 113 109 113 112 110 108 105 112 113 113 108 101 93 94 94 89 86 86 84 80 73 62 59 60 55 50 47 53
129 130 129 128 129 129 128 128 128 130 126 123 121 119 120 116 116 118 118 117 109 100 98 100 105 99 91 92 85 77 78 82 89 91 87 82 79 64 52 40 40 31 31
129 129 129 129 125 121 113 130 128 127 139 136 133 132 134 132 131 127 126 122 120 115 111 112 110 100 99 94 87 84 89 92 92 92 91 85 71 58 51 40 38 31 33
126 130 133 129 125 118 110 91 72 111 118 121 126 126 117 126 129 125 123 123 126 127 114 115 111 115 111 109 103 101 94 97 95 95 88 78 67 60 51 41 36 34 28
129 133 130 130 127 123 119 115 112 86 101 118 120 124 126 133 130 129 130 129 129 123 117 120 125 122 119 114 115 113 109 98 99 93 86 77 73 65 47 39 34 30 26
128 135 133 133 128 126 124 126 129 125 120 120 120 127 128 132 132 134 132 121 117 108 122 131 127 128 127 123 123 120 122 119 103 95 85 77 71 63 49 39 33 27 24
129 130 129 127 128 126 128 126 123 119 122 128 128 126 134 133 134 133 131 130 134 131 134 129 131 135 130 128 126 129 124 118 112 101 87 81 73 62 52 41 35 35 31
127 131 130 128 130 128 130 127 128 124 130 138 140 142 141 138 144 144 130 137 133 135 142 136 139 140 137 137 138 135 128 126 118 104 96 90 79 64 55 43 34 28 27
124 128 132 126 129 133 134 138 136 130 137 142 145 155 156 151 148 146 146 148 144 148 147 143 148 147 144 145 142 141 137 134 125 115 108 95 81 72 61 51 40 36 29
123 127 130 131 131 132 135 137 135 133 139 139 140 153 149 145 145 145 149 149 151 150 147 148 152 158 156 157 153 150 147 145 142 133 120 104 87 75 63 52 43 35 30
124 127 126 126 128 131 134 135 137 138 137 140 144 147 159 157 152 151 150 147 147 146 147 150 149 151 154 152 156 154 157 160 154 148 135 119 98 83 65 55 46 42 34
127 131 131 131 133 133 138 140 140 142 140 146 150 153 161 159 157 155 150 146 146 146 150 151 158 156 154 151 155 152 149 146 147 148 138 124 106 95 72 60 52 43 37
125 132 136 137 142 141 138 139 143 147 147 153 153 157 159 157 157 156 152 151 150 152 154 155 159 162 163 159 158 153 150 150 147 141 136 124 111 98 75 61 49 50 42
128 134 135 137 143 147 148 148 151 153 153 157 159 161 161 158 162 160 157 156 156 157 153 161 165 164 163 161 160 153 154 155 151 147 139 135 123 100 79 68 53 53 47